Orbital Elements at Epoch 2459000.5 (2020-May-31.0) TDB
Reference: JPL 29 (heliocentric ecliptic J2000)
Element | Value | Uncertainty (1-sigma) | Units |
e | .1207307261275353 | 4.4056e-08 | |
a | 2.610417731524704 | 1.177e-08 | au |
q | 2.295260103301533 | 1.1998e-07 | au |
i | 2.068419496874578 | 3.3775e-06 | deg |
node | 76.27749843276776 | 0.00011033 | deg |
peri | 124.0317688603153 | 0.00011155 | deg |
M | 317.4180029733898 | 1.8569e-05 | deg |
tp | 2459182.716192485283 (2020-Nov-29.21619249) | 8.0116e-05 | TDB |
period | 1540.506173388455 4.22 | 1.0419e-05 2.853e-08 | d yr |
n | .2336894237873476 | 1.5805e-09 | deg/d |
Q | 2.925575359747875 | 1.3191e-08 | au |
|
| | Orbit Determination Parameters
Additional Information
|